Location: Kearney
(40.6990°N, 99.0810°W)
Time: 21:55:51
(UTC-06:00)

Lacrosse 5 rocket - Pass Details

Date: 18 December 2017
Orbit: 466 x 635 km, 57.0° (Epoch: 10 January)

Event Time Altitude Azimuth Distance (km) Brightness Sun altitude
Rises 19:57:31 0° 225° (SW) 2,695 5.5 -30.6°
Reaches altitude 10° 19:59:41 10° 227° (SW) 1,835 4.6 -31.0°
Enters shadow 20:01:08 22° 228° (SW) 1,272 3.6 -31.3°
